EW1296 Weather Reports


Display with metric or nautical units.
time (UTC)temp
F
wind
direction
speed
MPH
gust
MPH
rain 1hr
in
rain 24hr
in
rain mn
in
humidity
%
barometer
mb
20260831065017 74 0 2.0 5.0 0.00 0.01 0.00 76 1018.8
20260831064517 74 315 1.0 4.0 0.00 0.01 0.00 77 1018.9
20260831064017 74 338 1.0 3.0 0.00 0.01 0.00 77 1018.9
20260831063517 74 338 1.0 2.0 0.00 0.01 0.00 77 1019.0
20260831063037 74 338 1.0 3.0 0.00 0.01 0.00 77 1018.9
20260831062517 74 0 2.0 4.0 0.00 0.01 0.00 77 1018.8
20260831062018 74 315 2.0 4.0 0.00 0.01 0.00 77 1018.9
20260831061517 75 315 3.0 8.0 0.00 0.01 0.00 77 1019.1
20260831061017 75 338 2.0 8.0 0.00 0.01 0.00 77 1019.0
20260831060518 75 338 2.0 5.0 0.00 0.01 0.00 77 1019.0
20260831060017 75 338 2.0 8.0 0.00 0.01 0.00 77 1019.1
20260831055517 75 315 3.0 8.0 0.00 0.01 0.00 77 1019.0
20260831055017 75 315 3.0 10.0 0.00 0.01 0.00 76 1019.1
20260831054517 75 338 3.0 10.0 0.00 0.01 0.00 77 1019.1
20260831054017 75 315 3.0 8.0 0.00 0.01 0.00 77 1019.0
20260831053517 75 338 2.0 8.0 0.00 0.01 0.00 77 1018.9
20260831053017 75 315 3.0 7.0 0.00 0.01 0.00 77 1018.9
20260831052517 75 0 2.0 6.0 0.00 0.01 0.00 77 1018.9
20260831052037 75 315 2.0 8.0 0.00 0.01 0.00 77 1019.0
20260831051518 76 315 3.0 7.0 0.00 0.01 0.00 78 1019.1
20260831051017 76 293 3.0 6.0 0.00 0.01 0.00 78 1019.2
20260831050517 76 315 2.0 6.0 0.00 0.01 0.00 79 1019.2
20260831050017 76 315 2.0 5.0 0.00 0.01 0.00 79 1019.2
20260831045517 76 270 2.0 5.0 0.00 0.01 0.00 80 1019.2
20260831045017 76 338 2.0 4.0 0.00 0.01 0.00 80 1019.1
20260831044517 76 315 2.0 5.0 0.00 0.01 0.00 81 1019.0
20260831044018 76 338 2.0 4.0 0.00 0.01 0.00 81 1019.1
20260831043518 76 0 2.0 4.0 0.00 0.01 0.00 82 1019.1
20260831043017 76 338 2.0 5.0 0.00 0.01 0.00 82 1019.0
20260831042517 76 315 2.0 4.0 0.00 0.01 0.00 83 1019.0
20260831042017 76 315 2.0 8.0 0.00 0.01 0.00 83 1018.9
20260831041538 76 338 2.0 7.0 0.00 0.01 0.00 84 1018.8
20260831041017 76 315 1.0 4.0 0.00 0.01 0.00 84 1018.9
20260831040517 76 338 1.0 3.0 0.00 0.01 0.00 85 1018.8
20260831040017 76 315 2.0 4.0 0.00 0.01 0.01 85 1018.9
20260831035516 76 315 2.0 4.0 0.00 0.01 0.01 85 1018.8
20260831035015 76 315 2.0 4.0 0.00 0.01 0.01 86 1018.8
20260831034515 77 315 1.0 4.0 0.00 0.01 0.01 86 1018.8
20260831034015 77 315 2.0 3.0 0.00 0.01 0.01 85 1018.8
20260831033537 77 315 1.0 3.0 0.00 0.01 0.01 85 1018.8
20260831033016 77 315 1.0 3.0 0.00 0.01 0.01 85 1018.8
20260831032515 77 293 1.0 3.0 0.00 0.01 0.01 85 1018.8
20260831032016 77 293 1.0 3.0 0.00 0.01 0.01 85 1018.6
20260831031515 77 248 1.0 3.0 0.00 0.01 0.01 84 1018.6
20260831031036 77 248 1.0 2.0 0.00 0.01 0.01 84 1018.5
20260831030515 77 0.0 2.0 0.00 0.01 0.01 84 1018.5
20260831030015 77 0.0 2.0 0.00 0.01 0.01 84 1018.5
20260831025516 77 0.0 2.0 0.00 0.01 0.01 84 1018.6
20260831025015 77 0.0 3.0 0.01 0.01 0.01 84 1018.8
20260831024515 77 0 1.0 3.0 0.01 0.01 0.01 84 1019.0
20260831024015 77 338 2.0 6.0 0.01 0.01 0.01 85 1019.1
20260831023515 77 0 2.0 6.0 0.01 0.01 0.01 85 1019.0
20260831023037 77 338 2.0 6.0 0.01 0.01 0.01 85 1019.1
20260831022537 78 338 1.0 3.0 0.01 0.01 0.01 86 1019.2
20260831022017 78 338 1.0 3.0 0.01 0.01 0.01 85 1019.2
20260831021517 78 338 2.0 5.0 0.01 0.01 0.01 85 1019.2
20260831021017 78 315 1.0 4.0 0.01 0.01 0.01 85 1019.2
20260831020517 78 0.0 4.0 0.01 0.01 0.01 85 1019.2
20260831020017 78 338 1.0 4.0 0.01 0.01 0.01 85 1019.2
20260831015518 78 338 1.0 3.0 0.01 0.01 0.01 84 1019.1
20260831015017 78 338 1.0 2.0 0.00 0.00 0.00 84 1019.1
20260831014517 78 338 1.0 4.0 0.00 0.00 0.00 84 1019.1
20260831014018 78 248 1.0 3.0 0.00 0.00 0.00 84 1019.1
20260831013517 78 0.0 2.0 0.00 0.00 0.00 84 1019.0
20260831013038 78 248 1.0 2.0 0.00 0.00 0.00 84 1019.0
20260831012538 78 0.0 3.0 0.00 0.00 0.00 84 1018.9
20260831012018 78 0.0 2.0 0.00 0.00 0.00 84 1018.8
20260831011538 78 248 1.0 2.0 0.00 0.00 0.00 83 1018.9
20260831011017 78 248 1.0 2.0 0.00 0.00 0.00 83 1018.8
20260831010517 78 0.0 2.0 0.00 0.00 0.00 83 1018.8
20260831010018 78 248 1.0 3.0 0.00 0.00 0.00 82 1018.7
20260831005517 78 0.0 1.0 0.00 0.00 0.00 82 1018.6
20260831005018 78 0.0 1.0 0.00 0.00 0.00 82 1018.5
20260831004516 78 248 1.0 2.0 0.00 0.00 0.00 82 1018.6
20260831004037 78 248 1.0 2.0 0.00 0.00 0.00 81 1018.5
20260831003517 78 248 1.0 3.0 0.00 0.00 0.00 81 1018.5
20260831003037 78 0.0 2.0 0.00 0.00 0.00 80 1018.4
20260831002517 78 0.0 3.0 0.00 0.00 0.00 80 1018.4
20260831002019 78 248 1.0 4.0 0.00 0.00 0.00 79 1018.4
20260831001517 78 248 1.0 3.0 0.00 0.00 0.00 78 1018.3
20260831001018 79 248 1.0 4.0 0.00 0.00 0.00 78 1018.3
20260831000537 79 248 2.0 4.0 0.00 0.00 0.00 77 1018.2
20260831000018 79 248 3.0 5.0 0.00 0.00 0.00 77 1018.2
20260830235038 79 248 2.0 5.0 0.00 0.00 0.00 76 1018.1
20260830234518 79 248 1.0 3.0 0.00 0.00 0.00 76 1018.0
20260830234038 80 0.0 3.0 0.00 0.00 0.00 75 1017.9
20260830233517 80 248 1.0 2.0 0.00 0.00 0.00 75 1017.9
20260830233037 80 0.0 3.0 0.00 0.00 0.00 75 1017.9
20260830232537 80 0.0 2.0 0.00 0.00 0.00 75 1017.9
20260830232018 80 0.0 0.0 0.00 0.00 0.00 75 1017.9
20260830231517 80 0.0 2.0 0.00 0.00 0.00 75 1017.9
20260830231017 80 248 1.0 3.0 0.00 0.00 0.00 74 1017.9
20260830230517 80 248 2.0 4.0 0.00 0.00 0.00 74 1018.0
20260830230018 81 248 2.0 4.0 0.00 0.00 0.00 74 1017.9
20260830225517 81 248 1.0 4.0 0.00 0.00 0.00 73 1017.9
20260830225018 81 248 2.0 4.0 0.00 0.00 0.00 73 1017.9
20260830224518 81 248 2.0 4.0 0.00 0.00 0.00 72 1017.9
20260830224017 81 248 2.0 4.0 0.00 0.00 0.00 72 1018.1
20260830223518 82 248 1.0 3.0 0.00 0.00 0.00 72 1017.8
20260830223018 82 225 1.0 5.0 0.00 0.00 0.00 72 1018.0
20260830222517 82 225 2.0 4.0 0.00 0.00 0.00 71 1018.0
20260830222017 82 248 1.0 6.0 0.00 0.00 0.00 71 1018.0
20260830221517 82 45 2.0 5.0 0.00 0.00 0.00 71 1017.9
20260830221017 82 248 2.0 4.0 0.00 0.00 0.00 70 1018.1
20260830220518 82 248 2.0 5.0 0.00 0.00 0.00 70 1018.1
20260830220018 82 248 2.0 5.0 0.00 0.00 0.00 70 1018.1
20260830215518 82 248 1.0 3.0 0.00 0.00 0.00 70 1018.1
20260830215017 82 293 2.0 4.0 0.00 0.00 0.00 70 1018.0
20260830214518 82 225 2.0 5.0 0.00 0.00 0.00 70 1017.9
20260830214017 82 225 1.0 4.0 0.00 0.00 0.00 70 1018.1
20260830213517 82 203 3.0 5.0 0.00 0.00 0.00 70 1018.0
20260830213018 82 270 3.0 6.0 0.00 0.00 0.00 70 1018.0
20260830212538 82 315 2.0 4.0 0.00 0.00 0.00 70 1017.9
20260830212017 82 270 2.0 6.0 0.00 0.00 0.00 70 1018.0
20260830211518 82 270 2.0 4.0 0.00 0.00 0.00 70 1018.1
20260830211017 82 293 3.0 7.0 0.00 0.00 0.00 70 1018.1
20260830210537 82 270 2.0 6.0 0.00 0.00 0.00 69 1018.1
20260830210017 82 248 2.0 5.0 0.00 0.00 0.00 70 1018.2
20260830205537 82 248 2.0 7.0 0.00 0.00 0.00 70 1018.2
20260830205038 82 293 3.0 7.0 0.00 0.00 0.00 70 1018.2
20260830204518 82 338 3.0 7.0 0.00 0.00 0.00 70 1018.2
20260830204017 82 293 4.0 8.0 0.00 0.00 0.00 69 1018.2
20260830203518 82 248 3.0 8.0 0.00 0.00 0.00 69 1018.2
20260830203016 82 248 5.0 10.0 0.00 0.00 0.00 69 1018.3
20260830202517 82 225 4.0 10.0 0.00 0.00 0.00 70 1018.4
20260830202037 82 248 4.0 9.0 0.00 0.00 0.00 70 1018.5
20260830201517 82 248 2.0 9.0 0.00 0.00 0.00 71 1018.4
20260830201016 82 270 3.0 8.0 0.00 0.00 0.00 70 1018.5
20260830200517 81 225 3.0 7.0 0.00 0.00 0.00 71 1018.4
20260830200017 81 225 4.0 10.0 0.00 0.00 0.00 72 1018.6
20260830195517 80 225 3.0 7.0 0.00 0.00 0.00 73 1018.6
20260830195017 80 225 2.0 5.0 0.00 0.00 0.00 74 1018.6
20260830194517 80 225 4.0 8.0 0.00 0.00 0.00 74 1018.8
20260830194037 80 248 2.0 8.0 0.00 0.00 0.00 75 1018.8
20260830193517 80 248 1.0 5.0 0.00 0.00 0.00 75 1018.9
20260830193017 80 225 3.0 4.0 0.00 0.00 0.00 74 1018.9
20260830192517 80 225 1.0 4.0 0.00 0.00 0.00 75 1018.9
20260830192018 80 225 1.0 3.0 0.00 0.00 0.00 75 1019.0
20260830191517 80 225 2.0 3.0 0.00 0.00 0.00 74 1019.1
20260830191017 80 225 2.0 4.0 0.00 0.00 0.00 73 1019.1
20260830190517 80 225 1.0 4.0 0.00 0.00 0.00 74 1019.3
20260830190017 80 225 2.0 5.0 0.00 0.00 0.00 70 1019.4
20260830185517 80 225 1.0 4.0 0.00 0.00 0.00 70 1019.4
20260830185017 80 0.0 3.0 0.00 0.00 0.00 70 1019.7
20260830184517 80 203 1.0 5.0 0.00 0.00 0.00 70 1019.7
20260830184017 80 158 1.0 4.0 0.00 0.00 0.00 70 1019.7
20260830183516 80 158 2.0 6.0 0.00 0.00 0.00 71 1019.7
20260830183018 79 225 2.0 6.0 0.00 0.00 0.00 71 1019.7
20260830182600 79 203 2.0 8.0 0.00 0.00 0.00 71 1019.8
20260830182018 79 225 4.0 9.0 0.00 0.00 0.00 71 1020.0
20260830181517 79 225 3.0 7.0 0.00 0.00 0.00 71 1020.0
20260830181017 79 225 3.0 6.0 0.00 0.00 0.00 70 1020.0
20260830180517 80 225 4.0 7.0 0.00 0.00 0.00 70 1020.1
20260830180017 80 225 4.0 9.0 0.00 0.00 0.00 69 1020.1
20260830175518 80 203 4.0 7.0 0.00 0.00 0.00 70 1020.2
20260830175016 80 225 4.0 9.0 0.00 0.00 0.00 69 1020.2
20260830174517 80 225 5.0 11.0 0.00 0.00 0.00 68 1020.3
20260830174037 80 248 4.0 9.0 0.00 0.00 0.00 68 1020.4
20260830173539 80 225 4.0 7.0 0.00 0.00 0.00 67 1020.4
20260830173016 80 225 2.0 6.0 0.00 0.00 0.00 67 1020.5
20260830172538 80 203 4.0 8.0 0.00 0.00 0.00 66 1020.5
20260830172016 81 203 4.0 10.0 0.00 0.00 0.00 65 1020.5
20260830171538 81 225 2.0 6.0 0.00 0.00 0.00 64 1020.6
20260830171017 81 225 5.0 10.0 0.00 0.00 0.00 64 1020.6
20260830170516 82 225 4.0 11.0 0.00 0.00 0.00 64 1020.6
20260830170037 81 203 3.0 7.0 0.00 0.00 0.00 65 1020.6
20260830165518 81 225 3.0 8.0 0.00 0.00 0.00 65 1020.7
20260830165016 80 248 5.0 13.0 0.00 0.00 0.00 67 1020.7
20260830164516 79 248 3.0 7.0 0.00 0.00 0.00 69 1020.8
20260830164037 78 225 4.0 12.0 0.00 0.00 0.00 69 1020.9
20260830163516 78 225 4.0 8.0 0.00 0.00 0.00 70 1020.9
20260830163016 78 225 3.0 8.0 0.00 0.00 0.00 71 1020.9
20260830162516 77 225 4.0 8.0 0.00 0.00 0.00 71 1021.0
20260830162017 78 225 5.0 9.0 0.00 0.00 0.00 71 1021.2
20260830161517 78 225 5.0 10.0 0.00 0.00 0.00 71 1021.2
20260830161017 78 203 3.0 11.0 0.00 0.00 0.00 70 1021.1
20260830160536 78 225 5.0 8.0 0.00 0.00 0.00 69 1021.3
20260830160037 78 225 6.0 10.0 0.00 0.00 0.00 68 1021.3
20260830155516 79 225 5.0 12.0 0.00 0.00 0.00 68 1021.3
20260830155037 79 225 6.0 11.0 0.00 0.00 0.00 67 1021.3
20260830154618 78 225 7.0 15.0 0.00 0.00 0.00 67 1021.4
20260830154016 78 225 4.0 10.0 0.00 0.00 0.00 69 1021.3
20260830153516 77 225 5.0 12.0 0.00 0.00 0.00 69 1021.3
20260830153016 77 225 6.0 13.0 0.00 0.00 0.00 69 1021.5
20260830152516 77 225 7.0 13.0 0.00 0.00 0.00 69 1021.8
20260830152016 77 225 6.0 12.0 0.00 0.00 0.00 69 1021.8
20260830151516 77 225 4.0 10.0 0.00 0.00 0.00 70 1021.9
20260830151016 77 203 4.0 12.0 0.00 0.00 0.00 70 1021.8
20260830150516 77 225 5.0 10.0 0.00 0.00 0.00 69 1021.8
20260830150018 77 225 5.0 12.0 0.00 0.00 0.00 68 1021.8
20260830145517 77 225 4.0 10.0 0.00 0.00 0.00 68 1021.9
20260830145017 77 203 3.0 7.0 0.00 0.00 0.00 67 1021.9
20260830144517 78 225 3.0 7.0 0.00 0.00 0.00 67 1022.0
20260830144016 77 225 2.0 7.0 0.00 0.00 0.00 67 1022.0
20260830143518 77 225 4.0 9.0 0.00 0.00 0.00 67 1022.1
20260830143016 77 225 5.0 11.0 0.00 0.00 0.00 66 1022.0
20260830142517 77 225 6.0 13.0 0.00 0.00 0.00 64 1022.0
20260830142017 77 225 5.0 10.0 0.00 0.00 0.00 64 1022.0
20260830141517 77 225 5.0 11.0 0.00 0.00 0.00 65 1022.0
20260830141016 77 225 4.0 11.0 0.00 0.00 0.00 66 1022.1
20260830140516 77 225 2.0 5.0 0.00 0.00 0.00 67 1022.0
20260830140017 76 225 3.0 6.0 0.00 0.00 0.00 66 1022.1
20260830135517 76 225 2.0 7.0 0.00 0.00 0.00 67 1022.3
20260830135038 75 225 4.0 8.0 0.00 0.00 0.00 67 1022.3
20260830134536 75 225 2.0 8.0 0.00 0.00 0.00 67 1022.4
20260830134037 75 225 3.0 9.0 0.00 0.00 0.00 68 1022.5
20260830133516 75 203 3.0 8.0 0.00 0.00 0.00 69 1022.6
20260830133037 74 225 4.0 9.0 0.00 0.00 0.00 69 1022.7
20260830132517 74 225 4.0 9.0 0.00 0.00 0.00 69 1022.8
20260830132016 74 225 4.0 9.0 0.00 0.00 0.00 69 1022.8
20260830131517 74 225 4.0 8.0 0.00 0.00 0.00 70 1022.7
20260830131016 73 225 4.0 8.0 0.00 0.00 0.00 71 1022.8
20260830130516 73 225 4.0 8.0 0.00 0.00 0.00 72 1022.8
20260830130017 73 225 2.0 4.0 0.00 0.00 0.00 73 1022.8
20260830125516 72 225 3.0 9.0 0.00 0.00 0.00 73 1022.8
20260830125017 72 225 4.0 7.0 0.00 0.00 0.00 72 1022.8
20260830124516 72 248 3.0 7.0 0.00 0.00 0.00 70 1022.9
20260830124016 71 225 4.0 8.0 0.00 0.00 0.00 70 1022.9
20260830123516 71 225 4.0 8.0 0.00 0.00 0.00 71 1023.0
20260830123016 71 225 2.0 5.0 0.00 0.00 0.00 72 1023.0
20260830122516 71 248 2.0 7.0 0.00 0.00 0.00 73 1023.0
20260830122016 71 248 2.0 7.0 0.00 0.00 0.00 75 1023.0
20260830121516 70 248 3.0 6.0 0.00 0.00 0.00 75 1023.0
20260830121016 70 203 2.0 4.0 0.00 0.00 0.00 75 1022.9
20260830120516 70 225 1.0 4.0 0.00 0.00 0.00 75 1022.9
20260830120017 69 315 1.0 3.0 0.00 0.00 0.00 75 1022.9
20260830115516 69 315 2.0 3.0 0.00 0.00 0.00 75 1022.8
20260830115017 69 315 1.0 3.0 0.00 0.00 0.00 76 1022.8
20260830114537 69 315 1.0 3.0 0.00 0.00 0.00 76 1022.8
20260830114036 69 315 1.0 4.0 0.00 0.00 0.00 77 1022.8
20260830113516 69 315 1.0 4.0 0.00 0.00 0.00 76 1022.9
20260830113016 69 315 2.0 3.0 0.00 0.00 0.00 75 1022.9
20260830112517 69 315 1.0 3.0 0.00 0.00 0.00 74 1022.9
20260830112016 68 0.0 0.0 0.00 0.00 0.00 74 1022.8
20260830111537 68 0.0 0.0 0.00 0.00 0.00 74 1022.8
20260830111017 68 0.0 0.0 0.00 0.00 0.00 74 1022.7
20260830110517 68 0.0 0.0 0.00 0.00 0.00 74 1022.7
20260830110017 68 0.0 0.0 0.00 0.00 0.00 74 1022.7
20260830105516 68 0.0 0.0 0.00 0.00 0.00 74 1022.7
20260830105016 68 0.0 0.0 0.00 0.00 0.00 74 1022.7
20260830104516 68 0.0 0.0 0.00 0.00 0.00 74 1022.6
20260830104016 68 0.0 0.0 0.00 0.00 0.00 74 1022.5
20260830103516 68 0.0 0.0 0.00 0.00 0.00 73 1022.5
20260830103016 69 0.0 0.0 0.00 0.00 0.00 73 1022.5
20260830102516 69 0.0 0.0 0.00 0.00 0.00 73 1022.6
20260830102016 68 0.0 0.0 0.00 0.00 0.00 73 1022.5
20260830101516 68 0.0 1.0 0.00 0.00 0.00 73 1022.6
20260830101016 68 248 1.0 3.0 0.00 0.00 0.00 73 1022.6
20260830100516 68 270 1.0 3.0 0.00 0.00 0.00 74 1022.6
20260830100017 68 270 3.0 6.0 0.00 0.00 0.00 75 1022.6
20260830095537 68 293 2.0 4.0 0.00 0.00 0.00 76 1022.7
20260830095016 68 0.0 2.0 0.00 0.00 0.00 76 1022.6
20260830094516 68 0.0 3.0 0.00 0.00 0.00 77 1022.6
20260830094017 68 0.0 2.0 0.00 0.00 0.00 77 1022.7
20260830093516 67 0.0 1.0 0.00 0.00 0.00 77 1022.7
20260830093016 67 0.0 1.0 0.00 0.00 0.00 77 1022.7
20260830092517 68 0.0 1.0 0.00 0.00 0.00 77 1022.7
20260830092016 68 0.0 1.0 0.00 0.00 0.00 77 1022.7
20260830091516 68 0.0 0.0 0.00 0.00 0.00 77 1022.6
20260830091016 67 0.0 0.0 0.00 0.00 0.00 78 1022.6
20260830090516 67 0.0 0.0 0.00 0.00 0.00 78 1022.6
20260830090015 67 0.0 3.0 0.00 0.00 0.00 79 1022.6
20260830085538 67 293 2.0 6.0 0.00 0.00 0.00 80 1022.6
20260830085015 67 248 1.0 4.0 0.00 0.00 0.00 82 1022.6
20260830084516 67 0.0 2.0 0.00 0.00 0.00 82 1022.7
20260830084017 67 248 1.0 2.0 0.00 0.00 0.00 82 1022.7
20260830083516 67 248 1.0 3.0 0.00 0.00 0.00 83 1022.9
20260830083035 67 248 1.0 3.0 0.00 0.00 0.00 83 1022.9
20260830082515 67 248 1.0 3.0 0.00 0.00 0.00 83 1022.8
20260830082016 67 248 2.0 6.0 0.00 0.00 0.00 84 1022.8
20260830081517 67 203 1.0 3.0 0.00 0.00 0.00 84 1022.8
20260830081016 67 203 2.0 4.0 0.00 0.00 0.00 84 1022.9
20260830080516 67 248 2.0 6.0 0.00 0.00 0.00 83 1023.0
20260830080016 67 248 2.0 4.0 0.00 0.00 0.00 83 1023.0
20260830075516 67 248 1.0 2.0 0.00 0.00 0.00 83 1023.0
20260830075015 67 248 1.0 2.0 0.00 0.00 0.00 83 1022.9
20260830074516 67 0.0 2.0 0.00 0.00 0.00 83 1023.0
20260830074016 68 0.0 1.0 0.00 0.00 0.00 82 1023.0
20260830073515 68 248 1.0 3.0 0.00 0.00 0.00 82 1023.1
20260830073016 68 248 1.0 3.0 0.00 0.00 0.00 82 1023.0
20260830072516 68 225 1.0 4.0 0.00 0.00 0.00 81 1023.1
20260830072036 68 225 2.0 4.0 0.00 0.00 0.00 81 1023.2
20260830071516 68 225 1.0 4.0 0.00 0.00 0.00 81 1023.1
20260830071035 68 225 1.0 5.0 0.00 0.00 0.00 81 1023.1
20260830070516 68 203 1.0 2.0 0.00 0.00 0.00 81 1023.1
20260830070015 68 0.0 2.0 0.00 0.00 0.00 81 1023.1
20260830065536 68 203 1.0 4.0 0.00 0.00 0.00 80 1023.1